This is the latest recevied weather packets stored in our database for station/object N0QV. If no packets are shown the sender has not sent any weather packets the latest 10 day(s).
| Time | Temp. | Humidity | Pressure | Rain* | Wind** | Luminosity | Snow |
|---|---|---|---|---|---|---|---|
| 1777505005 | 13.33° C | 40% | 1016.6 hPa | 0 mm | - | 61 W/m² | - |
| 1777504702 | 13.89° C | 40% | 1016.8 hPa | 0 mm | - | 119 W/m² | - |
| 1777504400 | 13.89° C | 41% | 1017.1 hPa | 0 mm | - | 100 W/m² | - |
| 1777504100 | 13.33° C | 41% | 1016.6 hPa | 0 mm | - | 171 W/m² | - |
| 1777503796 | 13.33° C | 41% | 1016.9 hPa | 0 mm | - | 137 W/m² | - |
| 1777503492 | 13.89° C | 39% | 1016.5 hPa | 0 mm | - | 135 W/m² | - |
| 1777503189 | 13.89° C | 39% | 1016.8 hPa | 0 mm | - | 119 W/m² | - |
| 1777502886 | 13.89° C | 40% | 1017 hPa | 0 mm | - | 305 W/m² | - |
| 1777502584 | 13.33° C | 40% | 1017.1 hPa | 0 mm | - | 173 W/m² | - |
| 1777502280 | 13.33° C | 40% | 1016.9 hPa | 0 mm | - | 219 W/m² | - |
| 1777501977 | 13.33° C | 40% | 1016.9 hPa | 0 mm | - | 130 W/m² | - |
| 1777501674 | 13.33° C | 39% | 1017.1 hPa | 0 mm | - | 93 W/m² | - |
| 1777501371 | 13.33° C | 41% | 1017.1 hPa | 0 mm | - | 115 W/m² | - |
| 1777501069 | 13.33° C | 42% | 1016.9 hPa | 0 mm | - | 125 W/m² | - |
| 1777500767 | 13.33° C | 39% | 1017.2 hPa | 0 mm | - | 125 W/m² | - |
| 1777500464 | 13.33° C | 41% | 1016.9 hPa | 0 mm | - | 110 W/m² | - |
| 1777500159 | 13.33° C | 39% | 1017 hPa | 0 mm | - | 131 W/m² | - |
| 1777499857 | 13.33° C | 39% | 1016.9 hPa | 0 mm | - | 178 W/m² | - |
| 1777499553 | 13.33° C | 39% | 1017.1 hPa | 0 mm | - | 184 W/m² | - |
| 1777499251 | 13.33° C | 38% | 1017 hPa | 0 mm | - | 163 W/m² | - |
| 1777498948 | 13.33° C | 39% | 1017.1 hPa | 0 mm | - | 150 W/m² | - |
| 1777498644 | 13.33° C | 38% | 1017.1 hPa | 0 mm | - | 170 W/m² | - |
| 1777498340 | 13.89° C | 37% | 1017.3 hPa | 0 mm | - | 227 W/m² | - |
| 1777498039 | 14.44° C | 40% | 1017.2 hPa | 0 mm | - | 218 W/m² | - |
| 1777497735 | 13.89° C | 41% | 1017.5 hPa | 0 mm | - | 419 W/m² | - |
* Rain latest hour (hover to see other rain measurements)
** Current wind speed in m/s (hover to see current wind gust speed)